Regional Weather Roundup
Issued by NWS

Home | Current Version | Previous Version | Graphics & Text | Print | Product List | Glossary On
Versions: 1 2 3 4 5 6 7 8 9 10 11 12 13 14 15 16 17 18 19 20 21 22 23 24 25 26 27 28 29 30 31 32 33 34 35 36 37 38 39 40 41 42 43 44 45 46 47 48 49 50
000
ASUS43 KLSX 292159
RWRMO

WEATHER SUMMARY FOR MISSOURI
NATIONAL WEATHER SERVICE SPRINGFIELD MO
500 PM CDT MON JUN 29 2015

NOTE: "FAIR" INDICATES FEW OR NO CLOUDS BELOW 12,000 FEET WITH NO
       SIGNIFICANT WEATHER AND/OR OBSTRUCTIONS TO VISIBILITY.
       CURRENT SKY AND/OR WEATHER CONDITIONS ARE NOT AVAILABLE FOR
       CHILLICOTHE AND FARMINGTON.

MOZ001>031-035>038-043-044-053-054-292300-
...NORTHERN AND WESTERN MISSOURI...

CITY           SKY/WX    TMP DP  RH WIND       PRES   REMARKS
KANSAS CTY INT MOSUNNY   85  64  49 NW10      29.91F
KANSAS C DTWN  SUNNY     87  63  44 NW10      29.89F
LEE`S SUMMIT   MOSUNNY   85  64  49 NW8       29.92F
ST JOSEPH      SUNNY     87  60  40 NW12      29.90F
CHILLICOTHE      N/A     85  62  46 NW8       29.89S
KIRKSVILLE     MOSUNNY   82  64  54 NW9       29.88S

$$
MOZ066>068-077>081-088>096-101>105-292300-
...SOUTHWEST MISSOURI...

CITY           SKY/WX    TMP DP  RH WIND       PRES   REMARKS
SPRINGFIELD    MOSUNNY   84  62  47 NW9G21    29.93F
JOPLIN         MOSUNNY   86  64  47 N9        29.94F

$$
MOZ032>034-039>042-045>050-055>058-069>072-292300-
...CENTRAL MISSOURI...

CITY           SKY/WX    TMP DP  RH WIND       PRES   REMARKS
COLUMBIA       SUNNY     84  63  49 W14       29.88F
JEFFERSON CITY SUNNY     85  62  46 NW10      29.87F
ROLLA          MOSUNNY   82  65  56 W10       29.89F
SEDALIA        MOSUNNY   85  66  53 W9        29.91F
OSAGE BEACH    MOSUNNY   82  64  54 W6        29.91S

$$
MOZ051-052-059>065-292300-
...EAST CENTRAL MISSOURI...

CITY           SKY/WX    TMP DP  RH WIND       PRES   REMARKS
ST LOUIS INTL  MOSUNNY   85  66  53 NW3       29.86F
SPIRIT OF STL  MOSUNNY   84  66  54 W6        29.84F
ST CHARLES     SUNNY     82  67  60 W3        29.84F

$$
MOZ072>076-082>087-097>100-106>115-292300-
...SOUTH CENTRAL AND SOUTHEAST MISSOURI...

CITY           SKY/WX    TMP DP  RH WIND       PRES   REMARKS
CAPE GIRARDEAU SUNNY     87  65  47 NW10      29.84F
FARMINGTON     MOSUNNY   82  64  54 NW9       29.92F
POPLAR BLUFF   SUNNY     89  64  43 NW9       29.84S HX  90
WEST PLAINS    SUNNY     85  62  46 W8        29.93F

$$


USA.gov is the U.S. government's official web portal to all federal, state and local government web resources and services.